Regional Weather Roundup
Issued by NWS

Home | Current Version | Previous Version | Graphics & Text | Print | Product List | Glossary On
Versions: 1 2 3 4 5 6 7 8 9 10 11 12 13 14 15 16 17 18 19 20 21 22 23 24 25 26 27 28 29 30 31 32 33 34 35 36 37 38 39 40 41 42 43 44 45 46 47 48 49 50
000
ASUS45 KCYS 261710
RWRWY

WYOMING REGIONAL WEATHER ROUNDUP
NATIONAL WEATHER SERVICE CHEYENNE WY
1100 AM MDT TUE AUG 26 2014

NOTE:  "FAIR" INDICATES FEW OR NO CLOUDS BELOW 12,000 FEET
WITH NO SIGNIFICANT WEATHER AND/OR OBSTRUCTIONS TO VISIBILITY.

WYZ001-261800-
YELLOWSTONE NATIONAL PARK

CITY           SKY/WX    TMP DP  RH WIND       PRES   REMARKS
LK YELLOWSTONE   N/A     53  43  68 CALM      30.37R
W YELLOWSTONE  NOT AVBL

$$
WYZ002>013-054>058-071-098>099-261800-
NORTHERN WYOMING

CITY           SKY/WX    TMP DP  RH WIND       PRES   REMARKS
JACKSON        NOT AVBL
CODY           MOSUNNY   63  48  59 CALM      30.21S
GREYBULL       MOSUNNY   66  48  52 CALM      30.17S
WORLAND        SUNNY     65  48  54 N3        30.17F
SHERIDAN       MOSUNNY   70  46  42 N6        30.17S
BUFFALO        MOSUNNY   68  46  45 N12       30.20F
GILLETTE       MOSUNNY   68  51  54 W5        30.16F
HULETT         PTSUNNY   64  54  68 MISG      30.19
NEWCASTLE      FAIR      66  50  55 MISG      30.18

$$
WYZ014>020-022>026-101>103-261800-
CENTRAL WYOMING

CITY           SKY/WX    TMP DP  RH WIND       PRES   REMARKS
BIG PINEY      MOSUNNY   57  46  66 VRB5      30.33R
PINEDALE       MOSUNNY   59  43  55 CALM      30.32S
DUBOIS         FAIR      61  39  44 N9G18     30.28
LANDER         MOSUNNY   65  49  56 N9        30.20R
RIVERTON       MOSUNNY   61  49  64 N8        30.22R
CASPER         PTSUNNY   70  48  45 NW9G20    30.21S
DOUGLAS        MOSUNNY   69  53  56 W6        30.20F

$$
WYZ021-027>030-104>119-261800-
SOUTHERN WYOMING

CITY           SKY/WX    TMP DP  RH WIND       PRES   REMARKS
EVANSTON       MOSUNNY   61  48  62 E9        30.31R
KEMMERER       MOSUNNY   59  45  58 SE7       30.33S
FORT BRIDGER   FAIR      61  48  62 SE12      30.34S
ROCK SPRINGS   SUNNY     60  44  55 VRB5      30.31S
DIXON          FAIR      63  49  59 CALM      30.34S
RAWLINS        MOSUNNY   63  50  62 SW10      30.31S
SARATOGA       FAIR      61  46  59 MISG      30.34R
LARAMIE        CLOUDY    63  45  51 VRB7      30.32R
CHEYENNE       MOSUNNY   67  54  63 S18G31    30.27S
TORRINGTON     MOSUNNY   71  58  63 SE9       30.16F
PINE BLUFFS    FAIR      72  54  53 S21G26    30.23R

$$


USA.gov is the U.S. government's official web portal to all federal, state and local government web resources and services.